User: anonymous   Login
Location: Unspecified
(0.0000°N, 0.0000°E)
Time: 07:32:02
(UTC+00:00)
Language:

AO-73 - Orbit

View from above orbital plane
View from above orbital plane
View from above satellite
View from above satellite

Ground track
Ground track

The orbit data is extracted from the following two-line orbital elements,

1 39444U 13066AE  18115.63598795  .00000300  00000-0  43561-4 0  9994
2 39444  97.5932 148.5253 0057223 324.1942  35.5441 14.81686738237874
Epoch (UTC): 25 April 2018 15:15:49
Eccentricity: 0.0057223
inclination: 97.5932°
perigee height: 584 km
apogee height: 664 km
right ascension of ascending node: 148.5253°
argument of perigee: 324.1942°
revolutions per day: 14.81686738
mean anomaly at epoch: 35.5441°
orbit number at epoch: 23787

The dashed part of the orbit path shows where the satellite is in the earth's shadow,  

DLR